When you browse on this site, cookies collect data to enhance your experience and personalize the content and advertising you see.
Visit our Privacy Policy to learn more. By continuing to use the site, you agree to this use of cookies and data.
  • In Hungary
  • List of Countries
  • For 7 days
  • Water Temperature
  • Weather Map
  • News
  • Weather Widgets
  • user-avatar
    Login

    Hourly Weather Malovarvarivka

    Today, 12 November, Tuesday

    Time Temperature Precipitation Wind Pressure Humidity
    00:00 +13°C° 0 mm 2 mps 760 mmHg 77%
    01:00 +12°C° 0 mm 2 mps 760 mmHg 77%
    02:00 +12°C° 0 mm 2 mps 761 mmHg 81%
    03:00 +12°C° 0 mm 2 mps 761 mmHg 82%
    04:00 +10°C° 0 mm 2 mps 761 mmHg 84%
    05:00 +10°C° 0 mm 2 mps 761 mmHg 85%
    06:00 +10°C° 0 mm 2 mps 761 mmHg 86%
    07:00 +11°C° 0 mm 3 mps 762 mmHg 86%
    08:00 +11°C° 0 mm 3 mps 762 mmHg 87%
    09:00 +13°C° 0 mm 3 mps 762 mmHg 79%
    10:00 +16°C° 0 mm 3 mps 762 mmHg 71%
    11:00 +17°C° 0 mm 3 mps 762 mmHg 63%
    12:00 +18°C° 0 mm 3 mps 762 mmHg 59%
    13:00 +19°C° 0 mm 3 mps 762 mmHg 55%
    14:00 +19°C° 0 mm 3 mps 761 mmHg 51%
    15:00 +18°C° 0 mm 3 mps 761 mmHg 56%
    16:00 +17°C° 0 mm 4 mps 761 mmHg 61%
    17:00 +15°C° 0 mm 4 mps 761 mmHg 66%
    18:00 +14°C° 0 mm 4 mps 761 mmHg 69%
    19:00 +13°C° 0 mm 4 mps 761 mmHg 71%
    20:00 +13°C° 0 mm 4 mps 762 mmHg 74%
    21:00 +13°C° 0 mm 4 mps 761 mmHg 75%
    22:00 +12°C° 0 mm 4 mps 761 mmHg 75%
    23:00 +12°C° 0 mm 4 mps 761 mmHg 76%

    Tomorrow, 13 November, Wednesday

    Time Temperature Precipitation Wind Pressure Humidity
    00:00 +12°C° 0 mm 4 mps 761 mmHg 80%
    01:00 +10°C° 0 mm 5 mps 761 mmHg 83%
    02:00 +10°C° 0 mm 5 mps 761 mmHg 87%
    03:00 +10°C° 0 mm 5 mps 761 mmHg 86%
    04:00 +10°C° 0 mm 5 mps 760 mmHg 84%
    05:00 +10°C° 0 mm 5 mps 760 mmHg 83%
    06:00 +10°C° 0 mm 5 mps 760 mmHg 79%
    07:00 +11°C° 0 mm 6 mps 760 mmHg 76%
    08:00 +11°C° 0 mm 6 mps 760 mmHg 72%
    09:00 +14°C° 0 mm 6 mps 760 mmHg 65%
    10:00 +15°C° 0 mm 7 mps 760 mmHg 57%
    11:00 +17°C° 0 mm 7 mps 760 mmHg 49%
    12:00 +18°C° 0 mm 7 mps 759 mmHg 45%
    13:00 +20°C° 0 mm 7 mps 759 mmHg 42%
    14:00 +20°C° 0 mm 7 mps 759 mmHg 38%
    15:00 +18°C° 0 mm 7 mps 759 mmHg 41%
    16:00 +16°C° 0 mm 6 mps 759 mmHg 45%
    17:00 +15°C° 0 mm 6 mps 758 mmHg 48%
    18:00 +14°C° 0 mm 6 mps 759 mmHg 52%
    19:00 +13°C° 0 mm 6 mps 759 mmHg 56%
    20:00 +11°C° 0 mm 6 mps 759 mmHg 60%
    21:00 +11°C° 0 mm 6 mps 759 mmHg 63%
    22:00 +11°C° 0 mm 6 mps 759 mmHg 65%
    23:00 +12°C° 0 mm 5 mps 759 mmHg 68%

    Day after tomorrow, 14 November, Thursday

    Time Temperature Precipitation Wind Pressure Humidity
    00:00 +10°C° 0 mm 5 mps 759 mmHg 71%
    01:00 +10°C° 0 mm 5 mps 759 mmHg 74%
    02:00 +9°C° 0 mm 5 mps 759 mmHg 78%
    03:00 +9°C° 0 mm 5 mps 758 mmHg 79%
    04:00 +8°C° 0 mm 5 mps 758 mmHg 81%
    05:00 +8°C° 0 mm 5 mps 758 mmHg 82%
    06:00 +8°C° 0 mm 5 mps 758 mmHg 82%
    07:00 +8°C° 0 mm 6 mps 758 mmHg 81%
    08:00 +8°C° 0 mm 6 mps 758 mmHg 81%
    09:00 +10°C° 0 mm 6 mps 758 mmHg 73%
    10:00 +11°C° 0 mm 7 mps 758 mmHg 65%
    11:00 +13°C° 0 mm 8 mps 758 mmHg 57%
    12:00 +15°C° 0 mm 8 mps 758 mmHg 55%
    13:00 +15°C° 0 mm 7 mps 758 mmHg 53%
    14:00 +16°C° 0 mm 7 mps 758 mmHg 51%
    15:00 +14°C° 0 mm 7 mps 758 mmHg 56%
    16:00 +13°C° 0 mm 6 mps 757 mmHg 60%
    17:00 +10°C° 0 mm 5 mps 757 mmHg 64%
    18:00 +10°C° 0 mm 5 mps 758 mmHg 65%
    19:00 +9°C° 0 mm 6 mps 758 mmHg 65%
    20:00 +9°C° 0 mm 6 mps 758 mmHg 66%
    21:00 +9°C° 0 mm 6 mps 758 mmHg 66%
    22:00 +8°C° 0 mm 6 mps 758 mmHg 67%
    23:00 +8°C° 0 mm 6 mps 758 mmHg 67%

    15 November, Friday

    Time Temperature Precipitation Wind Pressure Humidity
    00:00 +8°C° 0 mm 5 mps 758 mmHg 68%
    01:00 +8°C° 0 mm 5 mps 758 mmHg 70%
    02:00 +7°C° 0 mm 5 mps 759 mmHg 71%
    03:00 +7°C° 0 mm 5 mps 758 mmHg 71%
    04:00 +7°C° 0 mm 5 mps 758 mmHg 71%
    05:00 +5°C° 0 mm 6 mps 758 mmHg 72%
    06:00 +5°C° 0 mm 6 mps 759 mmHg 72%
    07:00 +5°C° 0 mm 6 mps 759 mmHg 72%
    08:00 +6°C° 0 mm 5 mps 759 mmHg 72%
    09:00 +7°C° 0 mm 5 mps 759 mmHg 68%
    10:00 +8°C° 0 mm 5 mps 760 mmHg 64%
    11:00 +9°C° 0 mm 5 mps 760 mmHg 59%
    12:00 +10°C° 0 mm 5 mps 760 mmHg 57%
    13:00 +12°C° 0 mm 5 mps 760 mmHg 55%
    14:00 +13°C° 0 mm 5 mps 760 mmHg 53%
    15:00 +12°C° 0 mm 4 mps 760 mmHg 56%
    16:00 +11°C° 0 mm 4 mps 760 mmHg 60%
    17:00 +10°C° 0 mm 4 mps 760 mmHg 64%
    18:00 +8°C° 0 mm 4 mps 761 mmHg 66%
    19:00 +7°C° 0 mm 4 mps 761 mmHg 69%
    20:00 +7°C° 0 mm 4 mps 761 mmHg 71%
    21:00 +6°C° 0 mm 4 mps 761 mmHg 72%
    22:00 +6°C° 0 mm 4 mps 761 mmHg 73%
    23:00 +5°C° 0 mm 4 mps 762 mmHg 73%

    16 November, Saturday

    Time Temperature Precipitation Wind Pressure Humidity
    00:00 +5°C° 0 mm 4 mps 762 mmHg 74%
    01:00 +5°C° 0 mm 4 mps 762 mmHg 75%
    02:00 +5°C° 0 mm 4 mps 762 mmHg 76%
    03:00 +4°C° 0 mm 4 mps 762 mmHg 79%
    04:00 +4°C° 0 mm 4 mps 762 mmHg 81%
    05:00 +4°C° 0 mm 4 mps 762 mmHg 83%
    06:00 +4°C° 0 mm 4 mps 762 mmHg 83%
    07:00 +4°C° 0 mm 4 mps 763 mmHg 82%
    08:00 +3°C° 0 mm 5 mps 763 mmHg 82%
    09:00 +5°C° 0 mm 5 mps 763 mmHg 75%
    10:00 +7°C° 0 mm 5 mps 763 mmHg 68%
    11:00 +8°C° 0 mm 5 mps 763 mmHg 61%
    12:00 +8°C° 0 mm 5 mps 763 mmHg 59%
    13:00 +9°C° 0 mm 5 mps 763 mmHg 57%
    14:00 +9°C° 0 mm 5 mps 763 mmHg 55%
    15:00 +8°C° 0 mm 5 mps 763 mmHg 58%
    16:00 +8°C° 0 mm 4 mps 763 mmHg 61%
    17:00 +7°C° 0 mm 4 mps 763 mmHg 64%
    18:00 +6°C° 0 mm 4 mps 763 mmHg 66%
    19:00 +6°C° 0 mm 4 mps 763 mmHg 69%
    20:00 +5°C° 0 mm 4 mps 763 mmHg 71%
    21:00 +5°C° 0 mm 5 mps 763 mmHg 71%
    22:00 +5°C° 0 mm 5 mps 763 mmHg 71%
    23:00 +5°C° 0 mm 5 mps 763 mmHg 71%

    17 November, Sunday

    Time Temperature Precipitation Wind Pressure Humidity
    00:00 +4°C° 0 mm 6 mps 763 mmHg 73%
    01:00 +4°C° 0 mm 6 mps 763 mmHg 74%
    02:00 +3°C° 0 mm 6 mps 763 mmHg 76%
    03:00 +3°C° 0 mm 6 mps 763 mmHg 78%
    04:00 +3°C° 0 mm 6 mps 763 mmHg 80%
    05:00 +3°C° 0 mm 6 mps 763 mmHg 82%
    06:00 +3°C° 0 mm 6 mps 763 mmHg 83%
    07:00 +3°C° 0 mm 6 mps 763 mmHg 84%
    08:00 +3°C° 0 mm 7 mps 764 mmHg 85%
    09:00 +5°C° 0 mm 6 mps 764 mmHg 79%
    10:00 +7°C° 0 mm 6 mps 764 mmHg 73%
    11:00 +9°C° 0 mm 6 mps 764 mmHg 67%
    12:00 +10°C° 0 mm 6 mps 764 mmHg 64%
    13:00 +11°C° 0 mm 6 mps 764 mmHg 60%
    14:00 +13°C° 0 mm 6 mps 764 mmHg 57%
    15:00 +11°C° 0 mm 6 mps 764 mmHg 61%
    16:00 +9°C° 0 mm 6 mps 764 mmHg 66%
    17:00 +8°C° 0 mm 5 mps 764 mmHg 71%
    18:00 +7°C° 0 mm 5 mps 764 mmHg 74%
    19:00 +7°C° 0 mm 5 mps 764 mmHg 77%
    20:00 +5°C° 0 mm 6 mps 764 mmHg 80%
    21:00 +6°C° 0 mm 5 mps 764 mmHg 82%
    22:00 +5°C° 0 mm 5 mps 764 mmHg 84%
    23:00 +5°C° 0 mm 5 mps 764 mmHg 86%
    Show more